Flag for U.S.A. Weather past 2 weeks in Kalispell, Montana, U.S.A.

Now
57 °F

Clear.


Feels Like: 57 °F
Forecast: 50 / 94 °F
Wind: No wind

Location: Kalispell - Glacier Park International

Current Time: Jul 29, 2014 at 1:17:28 AM

Latest Report: Jul 28, 2014 at 11:55 PM


Visibility: 10 mi

Pressure: 30.09 "Hg

Humidity: 81%

Dew point: 51 °F

Location of KalispellLocation

Historic Weather in Kalispell — Graph

°F

Kalispell temperature yesterday

Maximum temperature yesterday: 92 °F (at 7:55 PM)
Minimum temperature yesterday: 53 °F (at 2:55 AM)
Average temperature yesterday: 69 °F

Past Weeks' High & Low Weather Summary

 TemperatureHumidityPressure
High92 °F (Jul 28, 7:55 PM)97% (Jul 17, 4:55 AM)30.23 "Hg (Jul 17, 4:55 AM)
Low42 °F (Jul 26, 5:55 AM)16% (Jul 28, 6:55 PM)29.67 "Hg (Jul 17, 4:55 PM)
Average67 °F60%29.97 "Hg
* Reported Jul 13 11:55 PM — Jul 28 11:55 PM, Kalispell, Weather by CustomWeather, © 2014

Note: Actual official high and low records may vary slightly from our data, if they occured in-between our weather recording intervals... More about our weather records

Advertising

Kalispell weather history for previous 24 hours

 ConditionsComfort  
Time TempWeatherWind HumidityBarometerVisibility
11:55 PM
Jul 28
57 °FClear.No wind81%30.09 "Hg10 mi
10:55 PM61 °FClear.No wind72%30.08 "Hg10 mi
9:55 PM72 °FSunny.No wind49%30.06 "Hg10 mi
8:55 PM77 °FSunny.3 mph50%30.03 "Hg10 mi
7:55 PM92 °FSunny.No wind17%30.02 "Hg10 mi
6:55 PM91 °FSunny.No wind16%30.03 "Hg10 mi
5:55 PM89 °FSunny.6 mph22%30.05 "Hg10 mi
4:55 PM87 °FSunny.5 mph25%30.07 "Hg10 mi
3:55 PM86 °FSunny.6 mph27%30.09 "Hg10 mi
2:55 PM83 °FSunny.5 mph32%30.12 "Hg10 mi
1:55 PM79 °FSunny.9 mph36%30.14 "Hg10 mi
12:55 PM74 °FSunny.7 mph41%30.16 "Hg10 mi
11:55 AM70 °FSunny.12 mph49%30.19 "Hg10 mi
10:55 AM68 °FSunny.14 mph49%30.19 "Hg10 mi
9:55 AM66 °FSunny.12 mph49%30.17 "Hg10 mi
8:55 AM64 °FSunny.7 mph56%30.16 "Hg10 mi
7:55 AM61 °FSunny.8 mph62%30.15 "Hg10 mi
6:55 AM54 °FClear.9 mph80%30.14 "Hg10 mi
5:55 AM55 °FClear.5 mph74%30.13 "Hg10 mi
4:55 AM55 °FClear.6 mph77%30.13 "Hg10 mi
3:55 AM55 °FClear.No wind74%30.12 "Hg10 mi
2:55 AM53 °FClear.7 mph80%30.12 "Hg10 mi
1:55 AM54 °FClear.5 mph80%30.12 "Hg10 mi
Weather by CustomWeather, © 2014

See weather overviewHow to use our weather pages